QPF
0.00 0.00 0.00 0.00 0.00 0.00 0.00 0.00 0.00 0.00 0.01 0.00 0.01 0.01 0.02 0.03 0.02 0.01 0.00 0.01 0.01 0.01 0.02 0.02 0.04 0.05 0.04 0.03 0.03 0.03 0.03 0.03 0.04 0.03 0.03 0.03 0.03 0.04 0.04 0.04 0.04 0.06 0.07 0.09 0.09 0.05 0.04 0.04 0.04
0.00 0.00 0.00 0.00 0.00 0.00 0.00 0.00 0.00 0.00 0.00 0.00 0.00 0.01 0.02 0.02 0.01 0.01 0.01 0.01 0.01 0.02 0.02 0.02 0.03 0.04 0.05 0.04 0.04 0.04 0.04 0.04 0.04 0.03 0.03 0.02 0.03 0.03 0.03 0.03 0.03 0.04 0.06 0.05 0.05 0.04 0.04 0.05 0.06
0.00 0.00 0.00 0.00 0.00 0.00 0.00 0.00 0.00 0.00 0.00 0.00 0.00 0.00 0.01 0.01 0.00 0.01 0.01 0.00 0.01 0.02 0.02 0.03 0.04 0.04 0.05 0.04 0.05 0.04 0.04 0.04 0.04 0.04 0.04 0.03 0.03 0.03 0.03 0.02 0.03 0.04 0.04 0.04 0.04 0.04 0.04 0.04 0.06
0.00 0.00 0.00 0.00 0.00 0.00 0.00 0.00 0.00 0.00 0.00 0.00 0.00 0.00 0.01 0.02 0.01 0.01 0.01 0.00 0.00 0.02 0.02 0.03 0.04 0.04 0.05 0.05 0.06 0.05 0.04 0.04 0.04 0.04 0.04 0.05 0.03 0.03 0.03 0.02 0.03 0.04 0.04 0.06 0.06 0.04 0.04 0.03 0.04
0.00 0.00 0.00 0.00 0.00 0.00 0.00 0.00 0.00 0.00 0.00 0.00 0.00 0.00 0.01 0.02 0.01 0.01 0.00 0.00 0.01 0.02 0.03 0.04 0.03 0.03 0.04 0.04 0.04 0.06 0.04 0.03 0.03 0.03 0.03 0.04 0.03 0.03 0.02 0.02 0.02 0.02 0.03 0.04 0.06 0.05 0.05 0.05 0.06
0.00 0.00 0.00 0.00 0.00 0.00 0.00 0.00 0.00 0.00 0.00 0.00 0.00 0.00 0.01 0.01 0.01 0.00 0.01 0.01 0.00 0.01 0.01 0.03 0.03 0.02 0.02 0.02 0.04 0.05 0.04 0.03 0.03 0.03 0.03 0.03 0.03 0.02 0.02 0.03 0.03 0.02 0.03 0.04 0.06 0.06 0.06 0.06 0.06
0.00 0.00 0.00 0.00 0.00 0.00 0.00 0.00 0.00 0.00 0.00 0.00 0.00 0.00 0.01 0.01 0.01 0.01 0.01 0.00 0.01 0.00 0.01 0.02 0.03 0.02 0.01 0.02 0.02 0.02 0.02 0.02 0.02 0.03 0.03 0.02 0.03 0.04 0.04 0.04 0.04 0.04 0.04 0.04 0.05 0.05 0.05 0.05 0.05
0.00 0.00 0.00 0.00 0.00 0.00 0.00 0.00 0.00 0.00 0.00 0.00 0.00 0.01 0.01 0.01 0.00 0.01 0.01 0.01 0.01 0.01 0.01 0.02 0.02 0.02 0.02 0.02 0.02 0.02 0.02 0.03 0.02 0.03 0.03 0.03 0.03 0.02 0.03 0.03 0.03 0.03 0.04 0.05 0.05 0.04 0.04 0.05 0.05
0.00 0.00 0.00 0.00 0.00 0.00 0.00 0.00 0.00 0.00 0.00 0.00 0.00 0.01 0.02 0.01 0.00 0.00 0.01 0.01 0.01 0.01 0.01 0.01 0.01 0.02 0.02 0.02 0.02 0.03 0.03 0.02 0.03 0.04 0.03 0.04 0.05 0.03 0.04 0.02 0.02 0.03 0.04 0.05 0.06 0.05 0.04 0.05 0.06
0.00 0.00 0.00 0.00 0.00 0.00 0.00 0.00 0.00 0.00 0.00 0.00 0.00 0.00 0.01 0.01 0.00 0.00 0.00 0.00 0.00 0.00 0.00 0.01 0.01 0.01 0.02 0.02 0.02 0.04 0.03 0.03 0.04 0.04 0.02 0.03 0.03 0.04 0.03 0.03 0.03 0.04 0.05 0.05 0.05 0.05 0.03 0.04 0.06
0.00 0.00 0.00 0.00 0.00 0.00 0.00 0.00 0.00 0.00 0.00 0.00 0.00 0.00 0.00 0.00 0.00 0.00 0.00 0.00 0.00 0.00 0.00 0.00 0.00 0.01 0.02 0.02 0.02 0.03 0.04 0.04 0.02 0.02 0.02 0.03 0.02 0.02 0.03 0.04 0.03 0.07 0.06 0.05 0.03 0.03 0.04 0.05 0.07
0.00 0.00 0.00 0.00 0.00 0.00 0.00 0.00 0.00 0.00 0.00 0.00 0.00 0.00 0.00 0.00 0.00 0.00 0.00 0.00 0.00 0.00 0.00 0.00 0.00 0.01 0.01 0.01 0.01 0.02 0.03 0.03 0.01 0.03 0.02 0.02 0.02 0.02 0.02 0.03 0.03 0.06 0.07 0.05 0.03 0.04 0.05 0.05 0.05
0.00 0.00 0.00 0.00 0.00 0.00 0.00 0.00 0.00 0.00 0.00 0.00 0.00 0.00 0.00 0.00 0.00 0.00 0.00 0.00 0.00 0.00 0.01 0.01 0.01 0.01 0.01 0.01 0.01 0.02 0.02 0.02 0.02 0.02 0.02 0.02 0.02 0.02 0.03 0.03 0.04 0.04 0.03 0.04 0.04 0.03 0.03 0.04 0.03
0.00 0.00 0.00 0.00 0.00 0.00 0.00 0.00 0.00 0.00 0.00 0.00 0.00 0.00 0.00 0.00 0.00 0.00 0.00 0.00 0.00 0.01 0.01 0.01 0.02 0.02 0.02 0.02 0.03 0.03 0.03 0.04 0.03 0.03 0.03 0.04 0.04 0.04 0.05 0.06 0.07 0.06 0.05 0.05 0.05 0.03 0.04 0.04 0.03
0.00 0.00 0.00 0.00 0.00 0.00 0.00 0.00 0.00 0.00 0.00 0.00 0.00 0.00 0.00 0.00 0.00 0.00 0.00 0.00 0.01 0.01 0.01 0.02 0.02 0.02 0.04 0.04 0.04 0.04 0.04 0.06 0.08 0.06 0.04 0.04 0.05 0.06 0.06 0.06 0.07 0.07 0.06 0.07 0.06 0.05 0.04 0.03 0.03
0.00 0.00 0.00 0.00 0.00 0.00 0.00 0.00 0.00 0.00 0.00 0.00 0.00 0.00 0.00 0.00 0.00 0.00 0.00 0.01 0.01 0.01 0.02 0.02 0.01 0.02 0.05 0.05 0.05 0.05 0.05 0.06 0.07 0.05 0.04 0.05 0.06 0.05 0.06 0.07 0.07 0.07 0.06 0.07 0.08 0.06 0.06 0.05 0.05
0.00 0.00 0.00 0.00 0.00 0.00 0.00 0.00 0.00 0.00 0.00 0.00 0.00 0.00 0.00 0.00 0.00 0.00 0.00 0.00 0.02 0.02 0.03 0.04 0.03 0.04 0.05 0.05 0.06 0.06 0.06 0.06 0.06 0.04 0.05 0.04 0.05 0.05 0.07 0.07 0.07 0.06 0.06 0.07 0.06 0.07 0.08 0.08 0.08
0.00 0.00 0.00 0.00 0.00 0.00 0.00 0.00 0.00 0.00 0.00 0.00 0.00 0.00 0.00 0.00 0.00 0.00 0.00 0.00 0.02 0.02 0.03 0.04 0.04 0.04 0.04 0.05 0.06 0.07 0.08 0.09 0.08 0.07 0.09 0.06 0.06 0.05 0.06 0.07 0.07 0.07 0.08 0.08 0.08 0.11 0.12 0.10 0.09
0.00 0.00 0.00 0.00 0.00 0.00 0.00 0.00 0.00 0.00 0.00 0.00 0.00 0.00 0.00 0.00 0.00 0.00 0.00 0.02 0.02 0.03 0.04 0.04 0.05 0.05 0.06 0.06 0.08 0.09 0.10 0.09 0.07 0.07 0.10 0.09 0.08 0.05 0.06 0.08 0.11 0.11 0.10 0.10 0.09 0.09 0.11 0.09 0.08
0.00 0.00 0.00 0.00 0.00 0.00 0.00 0.00 0.00 0.00 0.00 0.00 0.00 0.00 0.00 0.00 0.00 0.00 0.01 0.03 0.02 0.03 0.04 0.04 0.05 0.06 0.07 0.06 0.06 0.06 0.07 0.07 0.07 0.06 0.08 0.08 0.09 0.08 0.08 0.09 0.10 0.10 0.10 0.11 0.09 0.10 0.10 0.09 0.07
0.00 0.00 0.00 0.00 0.00 0.00 0.00 0.00 0.00 0.00 0.00 0.00 0.00 0.00 0.00 0.00 0.00 0.00 0.01 0.02 0.02 0.01 0.02 0.02 0.03 0.05 0.05 0.04 0.05 0.06 0.06 0.05 0.06 0.08 0.09 0.07 0.06 0.06 0.08 0.09 0.11 0.12 0.09 0.09 0.11 0.10 0.09 0.10 0.09
0.00 0.00 0.00 0.00 0.00 0.00 0.00 0.00 0.00 0.00 0.00 0.00 0.00 0.00 0.00 0.00 0.01 0.02 0.02 0.01 0.01 0.01 0.01 0.02 0.03 0.05 0.04 0.03 0.03 0.05 0.07 0.08 0.09 0.08 0.10 0.09 0.06 0.06 0.07 0.08 0.10 0.11 0.09 0.10 0.09 0.08 0.09 0.11 0.12
0.00 0.00 0.00 0.00 0.00 0.00 0.00 0.00 0.00 0.00 0.00 0.00 0.00 0.00 0.00 0.00 0.01 0.02 0.01 0.01 0.01 0.01 0.02 0.02 0.03 0.04 0.05 0.05 0.05 0.07 0.06 0.07 0.07 0.08 0.10 0.11 0.09 0.07 0.05 0.07 0.09 0.10 0.10 0.10 0.10 0.09 0.08 0.08 0.11
0.00 0.00 0.00 0.00 0.00 0.00 0.00 0.00 0.00 0.00 0.00 0.00 0.00 0.00 0.00 0.00 0.00 0.01 0.00 0.00 0.00 0.01 0.01 0.02 0.02 0.04 0.04 0.04 0.05 0.05 0.06 0.06 0.07 0.08 0.07 0.06 0.06 0.07 0.06 0.05 0.08 0.10 0.11 0.11 0.11 0.10 0.08 0.09 0.11
0.00 0.00 0.00 0.00 0.00 0.00 0.00 0.00 0.00 0.00 0.00 0.00 0.00 0.00 0.00 0.00 0.00 0.00 0.00 0.00 0.01 0.01 0.01 0.01 0.02 0.03 0.04 0.04 0.04 0.04 0.05 0.05 0.07 0.07 0.06 0.06 0.06 0.06 0.06 0.06 0.08 0.07 0.08 0.10 0.09 0.08 0.09 0.10 0.12
0.00 0.00 0.00 0.00 0.00 0.00 0.00 0.00 0.00 0.00 0.00 0.00 0.00 0.00 0.00 0.00 0.00 0.00 0.00 0.00 0.01 0.02 0.03 0.04 0.04 0.03 0.03 0.04 0.05 0.04 0.05 0.04 0.04 0.05 0.05 0.06 0.07 0.07 0.08 0.08 0.07 0.05 0.04 0.05 0.08 0.07 0.07 0.07 0.08
0.00 0.00 0.00 0.00 0.00 0.00 0.00 0.00 0.00 0.00 0.00 0.00 0.00 0.00 0.00 0.00 0.00 0.00 0.00 0.00 0.00 0.01 0.03 0.04 0.03 0.03 0.02 0.03 0.04 0.03 0.04 0.03 0.03 0.04 0.05 0.06 0.08 0.06 0.06 0.07 0.06 0.05 0.05 0.06 0.08 0.07 0.06 0.06 0.07
0.00 0.00 0.00 0.00 0.00 0.00 0.00 0.00 0.00 0.00 0.00 0.00 0.00 0.00 0.00 0.00 0.00 0.00 0.00 0.00 0.00 0.00 0.01 0.01 0.01 0.02 0.03 0.03 0.03 0.02 0.03 0.03 0.04 0.04 0.06 0.07 0.06 0.06 0.06 0.04 0.03 0.04 0.04 0.04 0.07 0.07 0.04 0.04 0.04
0.00 0.00 0.00 0.00 0.00 0.00 0.00 0.00 0.00 0.00 0.00 0.00 0.00 0.00 0.00 0.00 0.00 0.00 0.00 0.00 0.00 0.00 0.01 0.01 0.02 0.03 0.03 0.02 0.02 0.02 0.04 0.06 0.05 0.04 0.03 0.04 0.05 0.05 0.04 0.03 0.03 0.04 0.03 0.03 0.05 0.05 0.04 0.04 0.04
0.00 0.00 0.00 0.00 0.00 0.00 0.00 0.00 0.00 0.00 0.00 0.00 0.00 0.00 0.00 0.00 0.00 0.00 0.00 0.00 0.00 0.00 0.01 0.01 0.02 0.02 0.02 0.01 0.02 0.02 0.03 0.05 0.05 0.04 0.03 0.03 0.04 0.05 0.05 0.04 0.04 0.03 0.03 0.03 0.04 0.05 0.05 0.05 0.05
MSLP
1009.05 1009.50 1010.10 1010.78 1011.43 1011.99 1012.40 1012.65 1012.79 1012.85 1012.90 1013.00 1013.15 1013.34 1013.55 1013.73 1013.83 1013.84 1013.79 1013.70 1013.64 1013.67 1013.81 1014.06 1014.39 1014.74 1015.03 1015.22 1015.25 1015.15 1014.95 1014.72 1014.52 1014.41 1014.40 1014.48 1014.63 1014.78 1014.90 1014.97 1014.98 1014.96 1014.94 1014.97 1015.07 1015.22 1015.41 1015.59 1015.72
1009.18 1009.78 1010.52 1011.29 1011.99 1012.55 1012.91 1013.09 1013.11 1013.05 1012.99 1012.98 1013.05 1013.20 1013.39 1013.57 1013.70 1013.75 1013.73 1013.68 1013.66 1013.72 1013.89 1014.16 1014.52 1014.89 1015.21 1015.42 1015.49 1015.44 1015.29 1015.10 1014.94 1014.86 1014.86 1014.95 1015.08 1015.21 1015.30 1015.34 1015.34 1015.32 1015.33 1015.39 1015.51 1015.70 1015.91 1016.10 1016.22
1009.43 1010.14 1010.95 1011.77 1012.47 1013.00 1013.30 1013.39 1013.33 1013.17 1013.03 1012.95 1012.97 1013.09 1013.27 1013.45 1013.59 1013.67 1013.68 1013.66 1013.67 1013.75 1013.93 1014.23 1014.60 1015.00 1015.35 1015.61 1015.74 1015.74 1015.66 1015.54 1015.43 1015.38 1015.41 1015.49 1015.59 1015.69 1015.75 1015.75 1015.73 1015.71 1015.72 1015.81 1015.96 1016.17 1016.40 1016.58 1016.68
1009.75 1010.52 1011.36 1012.16 1012.84 1013.30 1013.54 1013.56 1013.42 1013.22 1013.03 1012.92 1012.93 1013.04 1013.22 1013.40 1013.55 1013.63 1013.65 1013.65 1013.67 1013.76 1013.96 1014.27 1014.66 1015.09 1015.47 1015.78 1015.96 1016.04 1016.03 1015.97 1015.93 1015.92 1015.97 1016.05 1016.13 1016.20 1016.22 1016.20 1016.16 1016.14 1016.16 1016.26 1016.43 1016.64 1016.86 1017.03 1017.10
1010.12 1010.88 1011.69 1012.44 1013.04 1013.44 1013.61 1013.58 1013.41 1013.19 1013.01 1012.92 1012.95 1013.07 1013.26 1013.44 1013.59 1013.67 1013.69 1013.68 1013.70 1013.80 1014.00 1014.32 1014.72 1015.16 1015.57 1015.91 1016.15 1016.28 1016.33 1016.34 1016.36 1016.40 1016.47 1016.56 1016.64 1016.69 1016.70 1016.66 1016.62 1016.59 1016.62 1016.73 1016.90 1017.11 1017.31 1017.44 1017.47
1010.46 1011.18 1011.91 1012.57 1013.07 1013.39 1013.50 1013.45 1013.30 1013.12 1012.99 1012.96 1013.03 1013.19 1013.40 1013.59 1013.72 1013.79 1013.79 1013.77 1013.79 1013.88 1014.08 1014.39 1014.80 1015.23 1015.65 1016.00 1016.26 1016.43 1016.53 1016.59 1016.65 1016.73 1016.84 1016.95 1017.04 1017.10 1017.11 1017.09 1017.05 1017.04 1017.08 1017.19 1017.35 1017.54 1017.71 1017.80 1017.79
1010.74 1011.37 1011.98 1012.52 1012.92 1013.16 1013.24 1013.20 1013.10 1013.00 1012.97 1013.03 1013.18 1013.39 1013.62 1013.82 1013.94 1013.99 1013.98 1013.94 1013.95 1014.03 1014.22 1014.52 1014.91 1015.32 1015.72 1016.05 1016.30 1016.48 1016.59 1016.68 1016.78 1016.89 1017.03 1017.17 1017.30 1017.38 1017.42 1017.41 1017.40 1017.41 1017.46 1017.57 1017.72 1017.89 1018.01 1018.06 1018.02
1010.92 1011.43 1011.91 1012.32 1012.61 1012.79 1012.86 1012.86 1012.84 1012.85 1012.93 1013.10 1013.34 1013.62 1013.88 1014.09 1014.21 1014.24 1014.22 1014.18 1014.17 1014.25 1014.43 1014.71 1015.06 1015.43 1015.78 1016.07 1016.29 1016.44 1016.54 1016.63 1016.74 1016.88 1017.05 1017.22 1017.38 1017.50 1017.58 1017.61 1017.62 1017.65 1017.72 1017.83 1017.97 1018.10 1018.20 1018.22 1018.15
1011.00 1011.38 1011.73 1012.01 1012.21 1012.33 1012.40 1012.45 1012.53 1012.66 1012.87 1013.15 1013.49 1013.83 1014.13 1014.35 1014.48 1014.51 1014.48 1014.44 1014.44 1014.51 1014.69 1014.94 1015.26 1015.58 1015.87 1016.10 1016.25 1016.34 1016.41 1016.48 1016.59 1016.74 1016.93 1017.13 1017.32 1017.48 1017.59 1017.66 1017.70 1017.75 1017.82 1017.93 1018.05 1018.17 1018.24 1018.24 1018.16
1011.01 1011.27 1011.49 1011.66 1011.77 1011.86 1011.94 1012.04 1012.20 1012.44 1012.77 1013.15 1013.57 1013.97 1014.31 1014.56 1014.69 1014.73 1014.72 1014.70 1014.71 1014.80 1014.97 1015.21 1015.49 1015.76 1015.98 1016.13 1016.21 1016.25 1016.27 1016.31 1016.39 1016.54 1016.74 1016.96 1017.17 1017.36 1017.49 1017.58 1017.65 1017.71 1017.79 1017.89 1018.00 1018.10 1018.16 1018.16 1018.09
1011.00 1011.16 1011.27 1011.34 1011.39 1011.44 1011.52 1011.66 1011.89 1012.21 1012.62 1013.09 1013.57 1014.01 1014.39 1014.65 1014.81 1014.88 1014.89 1014.90 1014.95 1015.06 1015.25 1015.48 1015.72 1015.94 1016.10 1016.19 1016.21 1016.18 1016.15 1016.16 1016.22 1016.35 1016.55 1016.77 1017.00 1017.19 1017.34 1017.44 1017.51 1017.58 1017.65 1017.74 1017.85 1017.94 1018.00 1018.01 1017.96
1011.04 1011.12 1011.14 1011.13 1011.12 1011.13 1011.20 1011.36 1011.62 1011.99 1012.45 1012.96 1013.47 1013.94 1014.34 1014.63 1014.81 1014.92 1014.98 1015.03 1015.13 1015.27 1015.47 1015.70 1015.93 1016.11 1016.23 1016.27 1016.24 1016.17 1016.10 1016.08 1016.12 1016.24 1016.42 1016.64 1016.86 1017.05 1017.19 1017.29 1017.36 1017.42 1017.48 1017.56 1017.66 1017.76 1017.83 1017.86 1017.83
1011.18 1011.20 1011.16 1011.09 1011.02 1010.99 1011.03 1011.18 1011.44 1011.81 1012.27 1012.78 1013.30 1013.78 1014.18 1014.49 1014.71 1014.86 1014.97 1015.07 1015.21 1015.39 1015.61 1015.85 1016.07 1016.23 1016.33 1016.34 1016.29 1016.20 1016.12 1016.07 1016.10 1016.21 1016.37 1016.58 1016.78 1016.96 1017.09 1017.18 1017.24 1017.28 1017.34 1017.42 1017.51 1017.61 1017.70 1017.75 1017.75
1011.44 1011.43 1011.34 1011.22 1011.11 1011.03 1011.04 1011.14 1011.36 1011.70 1012.12 1012.60 1013.09 1013.56 1013.96 1014.29 1014.53 1014.72 1014.87 1015.02 1015.20 1015.41 1015.64 1015.89 1016.11 1016.27 1016.36 1016.38 1016.33 1016.25 1016.17 1016.13 1016.15 1016.24 1016.39 1016.58 1016.76 1016.92 1017.04 1017.12 1017.17 1017.21 1017.27 1017.34 1017.44 1017.56 1017.66 1017.73 1017.76
1011.83 1011.79 1011.67 1011.52 1011.36 1011.24 1011.20 1011.25 1011.41 1011.67 1012.03 1012.45 1012.90 1013.33 1013.72 1014.05 1014.32 1014.54 1014.73 1014.91 1015.11 1015.34 1015.58 1015.82 1016.04 1016.21 1016.32 1016.35 1016.33 1016.27 1016.21 1016.19 1016.22 1016.30 1016.44 1016.60 1016.76 1016.90 1017.01 1017.09 1017.14 1017.19 1017.26 1017.35 1017.47 1017.59 1017.72 1017.81 1017.85
1012.29 1012.23 1012.09 1011.92 1011.73 1011.58 1011.48 1011.47 1011.55 1011.74 1012.01 1012.35 1012.74 1013.13 1013.50 1013.84 1014.12 1014.36 1014.57 1014.77 1014.98 1015.20 1015.43 1015.67 1015.88 1016.06 1016.19 1016.26 1016.27 1016.26 1016.23 1016.23 1016.26 1016.34 1016.45 1016.59 1016.73 1016.86 1016.96 1017.05 1017.12 1017.20 1017.29 1017.41 1017.55 1017.70 1017.84 1017.95 1018.01
1012.76 1012.68 1012.54 1012.36 1012.17 1012.00 1011.86 1011.78 1011.79 1011.88 1012.06 1012.32 1012.63 1012.98 1013.32 1013.65 1013.95 1014.20 1014.42 1014.63 1014.82 1015.02 1015.23 1015.45 1015.66 1015.85 1016.00 1016.10 1016.17 1016.19 1016.20 1016.22 1016.25 1016.31 1016.40 1016.50 1016.62 1016.74 1016.85 1016.95 1017.05 1017.17 1017.30 1017.46 1017.64 1017.82 1017.99 1018.11 1018.18
1013.17 1013.09 1012.96 1012.80 1012.62 1012.44 1012.28 1012.15 1012.08 1012.08 1012.16 1012.33 1012.57 1012.86 1013.18 1013.51 1013.81 1014.07 1014.30 1014.49 1014.67 1014.84 1015.02 1015.21 1015.41 1015.60 1015.78 1015.92 1016.03 1016.10 1016.14 1016.17 1016.19 1016.22 1016.27 1016.34 1016.42 1016.52 1016.63 1016.75 1016.90 1017.06 1017.24 1017.45 1017.67 1017.89 1018.08 1018.24 1018.33
1013.47 1013.40 1013.30 1013.18 1013.04 1012.88 1012.71 1012.54 1012.40 1012.31 1012.29 1012.37 1012.53 1012.77 1013.06 1013.38 1013.68 1013.95 1014.18 1014.37 1014.52 1014.66 1014.81 1014.98 1015.16 1015.37 1015.57 1015.75 1015.90 1016.01 1016.08 1016.10 1016.10 1016.09 1016.09 1016.10 1016.14 1016.21 1016.32 1016.46 1016.63 1016.84 1017.07 1017.32 1017.59 1017.85 1018.08 1018.27 1018.40
1013.63 1013.60 1013.56 1013.51 1013.43 1013.31 1013.14 1012.94 1012.73 1012.54 1012.42 1012.40 1012.48 1012.66 1012.92 1013.23 1013.54 1013.83 1014.06 1014.25 1014.39 1014.51 1014.63 1014.77 1014.95 1015.16 1015.39 1015.61 1015.81 1015.95 1016.03 1016.05 1016.01 1015.95 1015.88 1015.83 1015.82 1015.85 1015.94 1016.08 1016.27 1016.51 1016.78 1017.07 1017.37 1017.66 1017.94 1018.17 1018.35
1013.67 1013.70 1013.75 1013.80 1013.81 1013.74 1013.58 1013.34 1013.05 1012.77 1012.53 1012.40 1012.39 1012.51 1012.75 1013.05 1013.37 1013.68 1013.93 1014.12 1014.26 1014.36 1014.47 1014.60 1014.78 1015.00 1015.26 1015.52 1015.75 1015.92 1016.01 1016.02 1015.96 1015.84 1015.70 1015.58 1015.50 1015.48 1015.53 1015.66 1015.86 1016.10 1016.38 1016.69 1017.01 1017.33 1017.63 1017.92 1018.16
1013.64 1013.76 1013.92 1014.09 1014.19 1014.17 1014.02 1013.75 1013.38 1012.98 1012.62 1012.37 1012.27 1012.33 1012.53 1012.83 1013.17 1013.50 1013.78 1013.99 1014.13 1014.24 1014.33 1014.46 1014.64 1014.88 1015.16 1015.45 1015.72 1015.92 1016.03 1016.03 1015.94 1015.77 1015.57 1015.38 1015.24 1015.16 1015.17 1015.26 1015.43 1015.65 1015.92 1016.22 1016.53 1016.86 1017.18 1017.50 1017.81
1013.57 1013.82 1014.12 1014.41 1014.60 1014.64 1014.49 1014.16 1013.70 1013.18 1012.70 1012.33 1012.13 1012.12 1012.29 1012.59 1012.95 1013.31 1013.62 1013.86 1014.02 1014.12 1014.22 1014.34 1014.52 1014.77 1015.07 1015.40 1015.69 1015.92 1016.05 1016.05 1015.94 1015.75 1015.50 1015.26 1015.05 1014.92 1014.87 1014.92 1015.04 1015.22 1015.45 1015.71 1015.99 1016.29 1016.61 1016.95 1017.31
1013.54 1013.92 1014.37 1014.77 1015.05 1015.12 1014.96 1014.57 1014.01 1013.37 1012.77 1012.28 1011.99 1011.93 1012.07 1012.36 1012.75 1013.14 1013.49 1013.75 1013.92 1014.03 1014.12 1014.24 1014.42 1014.67 1014.98 1015.32 1015.64 1015.90 1016.05 1016.06 1015.96 1015.75 1015.48 1015.20 1014.96 1014.78 1014.68 1014.67 1014.74 1014.86 1015.02 1015.22 1015.44 1015.69 1015.98 1016.31 1016.70
1013.58 1014.10 1014.67 1015.17 1015.51 1015.60 1015.41 1014.95 1014.30 1013.55 1012.83 1012.25 1011.89 1011.77 1011.89 1012.20 1012.60 1013.03 1013.40 1013.68 1013.87 1013.98 1014.06 1014.16 1014.32 1014.56 1014.87 1015.22 1015.56 1015.83 1016.01 1016.05 1015.96 1015.76 1015.50 1015.21 1014.94 1014.74 1014.60 1014.55 1014.55 1014.61 1014.69 1014.80 1014.94 1015.11 1015.35 1015.65 1016.02
1013.68 1014.32 1014.98 1015.55 1015.92 1016.00 1015.77 1015.25 1014.52 1013.68 1012.88 1012.24 1011.82 1011.68 1011.80 1012.11 1012.54 1012.99 1013.38 1013.68 1013.87 1013.97 1014.04 1014.11 1014.25 1014.47 1014.76 1015.11 1015.45 1015.74 1015.94 1016.01 1015.95 1015.78 1015.54 1015.27 1015.01 1014.80 1014.65 1014.56 1014.51 1014.50 1014.50 1014.52 1014.56 1014.65 1014.79 1015.03 1015.36
1013.83 1014.54 1015.25 1015.84 1016.21 1016.26 1015.98 1015.40 1014.61 1013.72 1012.88 1012.21 1011.78 1011.64 1011.77 1012.10 1012.55 1013.02 1013.43 1013.73 1013.92 1014.01 1014.06 1014.12 1014.23 1014.42 1014.69 1015.02 1015.36 1015.66 1015.87 1015.97 1015.95 1015.82 1015.62 1015.39 1015.16 1014.96 1014.81 1014.70 1014.62 1014.55 1014.49 1014.43 1014.37 1014.35 1014.40 1014.54 1014.79
1013.97 1014.70 1015.40 1015.96 1016.28 1016.28 1015.96 1015.34 1014.52 1013.63 1012.79 1012.14 1011.73 1011.62 1011.77 1012.12 1012.59 1013.07 1013.50 1013.81 1014.00 1014.09 1014.13 1014.17 1014.26 1014.44 1014.69 1015.00 1015.33 1015.63 1015.86 1015.98 1015.99 1015.91 1015.75 1015.57 1015.38 1015.22 1015.09 1014.99 1014.89 1014.79 1014.68 1014.55 1014.41 1014.30 1014.24 1014.28 1014.42
1014.05 1014.73 1015.36 1015.84 1016.07 1016.01 1015.64 1015.01 1014.20 1013.34 1012.56 1011.96 1011.62 1011.55 1011.74 1012.12 1012.61 1013.10 1013.53 1013.86 1014.06 1014.16 1014.21 1014.26 1014.36 1014.53 1014.78 1015.09 1015.41 1015.70 1015.94 1016.08 1016.12 1016.07 1015.96 1015.83 1015.70 1015.58 1015.49 1015.40 1015.32 1015.21 1015.07 1014.89 1014.70 1014.51 1014.37 1014.30 1014.33
1014.02 1014.58 1015.09 1015.45 1015.58 1015.44 1015.03 1014.40 1013.64 1012.85 1012.16 1011.65 1011.39 1011.39 1011.63 1012.03 1012.53 1013.03 1013.47 1013.81 1014.04 1014.18 1014.27 1014.36 1014.50 1014.70 1014.96 1015.27 1015.59 1015.89 1016.12 1016.27 1016.34 1016.32 1016.26 1016.17 1016.09 1016.02 1015.97 1015.93 1015.87 1015.77 1015.63 1015.44 1015.22 1014.98 1014.77 1014.62 1014.54
Thickness
5850 5853 5854 5848 5833 5813 5793 5797 5803 5797 5795 5800 5800 5796 5787 5779 5775 5760 5779 5787 5784 5782 5776 5769 5766 5765 5764 5763 5762 5761 5761 5760 5759 5759 5759 5758 5758 5758 5757 5757 5756 5756 5755 5755 5754 5753 5752 5751 5750
5859 5857 5852 5846 5822 5793 5786 5799 5797 5796 5798 5802 5799 5795 5786 5777 5781 5777 5780 5782 5783 5782 5777 5770 5764 5763 5762 5761 5760 5759 5759 5758 5757 5757 5757 5756 5756 5756 5755 5755 5754 5754 5754 5753 5752 5751 5750 5749 5748
5862 5859 5850 5837 5811 5795 5789 5799 5798 5801 5805 5802 5794 5793 5784 5776 5779 5780 5783 5783 5783 5779 5774 5767 5763 5762 5760 5759 5758 5758 5757 5757 5756 5755 5755 5755 5754 5754 5754 5753 5753 5752 5752 5751 5750 5749 5748 5748 5747
5863 5857 5850 5828 5802 5804 5804 5804 5805 5801 5801 5802 5796 5785 5783 5784 5785 5785 5785 5784 5781 5777 5774 5766 5762 5761 5759 5758 5757 5756 5756 5755 5754 5754 5753 5753 5752 5752 5752 5752 5751 5751 5750 5749 5748 5748 5747 5746 5745
5866 5854 5833 5814 5805 5809 5813 5812 5811 5802 5797 5798 5796 5781 5774 5782 5789 5787 5784 5783 5781 5778 5774 5767 5761 5760 5758 5757 5756 5755 5755 5754 5753 5752 5752 5751 5751 5750 5750 5750 5750 5749 5748 5747 5747 5746 5745 5745 5744
5858 5852 5824 5805 5802 5810 5814 5816 5812 5802 5797 5796 5793 5782 5772 5782 5784 5784 5784 5783 5782 5779 5775 5766 5760 5759 5758 5756 5755 5755 5754 5753 5752 5751 5750 5750 5749 5749 5749 5749 5748 5747 5747 5746 5745 5745 5744 5744 5743
5852 5841 5820 5813 5806 5806 5812 5819 5811 5802 5796 5796 5798 5783 5776 5780 5784 5785 5783 5781 5781 5779 5775 5771 5766 5760 5757 5756 5755 5754 5753 5752 5751 5750 5749 5749 5748 5748 5747 5747 5747 5747 5746 5745 5744 5744 5743 5743 5743
5862 5847 5825 5819 5811 5807 5817 5818 5815 5808 5798 5805 5803 5785 5777 5781 5786 5785 5782 5780 5779 5777 5775 5771 5769 5765 5762 5759 5754 5753 5752 5752 5751 5750 5749 5749 5748 5748 5747 5747 5746 5746 5745 5744 5744 5743 5743 5743 5742
5865 5842 5821 5821 5818 5815 5821 5815 5814 5817 5807 5804 5804 5800 5794 5789 5787 5782 5778 5776 5775 5774 5774 5774 5771 5766 5764 5762 5757 5755 5753 5752 5751 5751 5749 5750 5753 5752 5749 5747 5745 5745 5744 5744 5743 5743 5743 5743 5742
5858 5834 5826 5834 5835 5827 5822 5818 5815 5810 5800 5796 5795 5795 5793 5788 5784 5780 5777 5774 5772 5771 5772 5772 5770 5766 5765 5763 5759 5759 5758 5755 5754 5753 5753 5753 5751 5751 5751 5745 5745 5744 5744 5744 5743 5743 5744 5745 5746
5853 5836 5837 5839 5841 5836 5825 5821 5822 5811 5800 5800 5794 5791 5790 5787 5783 5781 5779 5777 5775 5773 5772 5772 5768 5764 5764 5762 5762 5760 5758 5756 5755 5753 5753 5751 5752 5752 5751 5749 5747 5746 5746 5748 5746 5748 5749 5750 5748
5848 5842 5843 5841 5842 5837 5829 5825 5819 5815 5811 5815 5808 5800 5793 5788 5785 5784 5780 5778 5776 5774 5772 5772 5768 5764 5762 5762 5761 5759 5759 5758 5758 5753 5753 5754 5753 5752 5751 5750 5750 5750 5749 5748 5750 5750 5750 5749 5749
5843 5841 5844 5844 5842 5838 5833 5825 5819 5814 5818 5817 5810 5801 5795 5792 5789 5787 5785 5781 5777 5773 5772 5770 5767 5763 5760 5759 5759 5760 5758 5758 5757 5754 5753 5752 5753 5752 5751 5749 5749 5751 5750 5750 5749 5751 5750 5750 5750
5845 5843 5842 5842 5839 5836 5828 5823 5819 5814 5818 5812 5805 5799 5798 5795 5792 5788 5783 5779 5776 5774 5772 5771 5767 5764 5760 5759 5758 5758 5758 5755 5756 5754 5753 5751 5752 5751 5750 5749 5748 5750 5751 5751 5750 5751 5750 5751 5751
5850 5839 5836 5838 5837 5836 5830 5814 5815 5819 5818 5808 5804 5801 5798 5797 5794 5789 5786 5782 5780 5777 5774 5771 5768 5765 5762 5761 5760 5759 5758 5757 5755 5754 5752 5751 5752 5751 5750 5751 5750 5751 5750 5750 5750 5750 5751 5751 5751
5845 5835 5824 5831 5836 5835 5825 5808 5818 5823 5816 5807 5805 5802 5798 5796 5796 5794 5791 5786 5784 5780 5775 5772 5772 5767 5764 5762 5759 5760 5759 5757 5756 5755 5754 5753 5752 5751 5751 5752 5753 5751 5751 5751 5750 5751 5752 5751 5751
5833 5825 5822 5825 5836 5834 5826 5815 5819 5824 5817 5809 5807 5804 5800 5797 5796 5796 5794 5790 5786 5782 5777 5773 5771 5768 5766 5763 5761 5760 5758 5756 5756 5756 5755 5754 5753 5752 5751 5752 5752 5752 5752 5752 5752 5752 5751 5750 5749
5822 5825 5823 5823 5833 5830 5823 5820 5821 5823 5819 5814 5811 5808 5804 5800 5798 5799 5797 5794 5789 5785 5779 5775 5772 5769 5766 5765 5762 5761 5759 5758 5757 5756 5755 5754 5754 5753 5753 5753 5752 5753 5753 5752 5751 5749 5749 5749 5749
5833 5827 5822 5826 5835 5829 5822 5821 5823 5823 5820 5816 5814 5811 5807 5804 5805 5803 5799 5795 5791 5786 5780 5776 5773 5771 5767 5765 5763 5761 5759 5759 5759 5758 5757 5755 5754 5754 5753 5754 5752 5752 5752 5751 5752 5750 5749 5749 5750
5829 5822 5822 5825 5831 5828 5823 5822 5828 5827 5822 5822 5818 5814 5811 5808 5806 5802 5799 5796 5792 5787 5782 5779 5775 5773 5770 5767 5765 5763 5762 5761 5761 5759 5757 5756 5755 5754 5755 5753 5753 5752 5751 5750 5750 5749 5748 5750 5751
5823 5822 5823 5821 5825 5829 5823 5818 5822 5827 5827 5825 5824 5822 5819 5814 5808 5804 5800 5797 5794 5788 5784 5782 5778 5774 5771 5769 5766 5764 5762 5761 5760 5759 5758 5757 5756 5755 5753 5753 5753 5752 5752 5751 5750 5749 5747 5746 5748
5815 5829 5826 5821 5817 5818 5819 5810 5820 5825 5823 5823 5823 5824 5822 5820 5815 5810 5804 5799 5795 5791 5788 5783 5778 5774 5771 5769 5767 5763 5760 5758 5758 5758 5757 5757 5756 5755 5754 5753 5752 5752 5752 5751 5750 5752 5749 5747 5745
5824 5829 5826 5823 5819 5816 5818 5812 5821 5827 5820 5824 5827 5827 5827 5824 5819 5813 5808 5803 5799 5795 5790 5785 5779 5775 5772 5769 5767 5763 5762 5761 5760 5759 5756 5755 5756 5754 5754 5753 5752 5751 5752 5751 5749 5749 5749 5748 5746
5825 5822 5819 5820 5819 5798 5810 5806 5812 5828 5826 5829 5831 5830 5828 5826 5821 5815 5811 5806 5800 5797 5791 5786 5780 5775 5772 5770 5767 5764 5761 5760 5758 5756 5755 5756 5756 5755 5754 5753 5752 5752 5751 5750 5749 5748 5748 5747 5746
5819 5808 5793 5790 5793 5798 5812 5806 5816 5833 5837 5835 5834 5832 5830 5827 5822 5815 5810 5805 5800 5796 5791 5787 5780 5775 5773 5770 5767 5765 5762 5759 5756 5756 5755 5754 5754 5753 5752 5752 5750 5751 5750 5749 5748 5747 5747 5746 5744
5814 5814 5793 5782 5787 5802 5804 5804 5825 5838 5840 5840 5839 5837 5832 5827 5824 5818 5813 5807 5802 5797 5792 5787 5781 5776 5773 5770 5767 5765 5762 5761 5760 5757 5756 5754 5753 5752 5751 5750 5749 5748 5747 5748 5746 5747 5746 5744 5743
5809 5811 5826 5811 5802 5796 5806 5813 5828 5837 5835 5834 5834 5833 5830 5827 5824 5820 5815 5810 5804 5799 5793 5788 5781 5776 5773 5770 5767 5764 5761 5760 5758 5756 5754 5753 5751 5751 5749 5748 5747 5745 5744 5744 5744 5743 5742 5741 5740
5820 5820 5810 5802 5781 5779 5794 5802 5814 5823 5827 5830 5830 5829 5828 5827 5824 5821 5816 5810 5806 5801 5794 5788 5782 5777 5774 5770 5767 5764 5761 5758 5756 5754 5751 5749 5748 5747 5746 5744 5744 5743 5742 5741 5740 5739 5737 5736 5735
5801 5804 5806 5805 5804 5786 5784 5803 5834 5831 5832 5831 5831 5830 5829 5827 5824 5819 5815 5811 5805 5800 5794 5787 5781 5776 5772 5769 5765 5762 5759 5756 5754 5751 5748 5746 5744 5743 5741 5740 5740 5739 5738 5737 5735 5734 5732 5731 5729
5813 5809 5803 5789 5786 5794 5796 5809 5837 5837 5839 5836 5833 5830 5829 5826 5823 5818 5813 5808 5802 5797 5792 5785 5780 5775 5771 5767 5763 5759 5756 5753 5750 5748 5745 5743 5741 5739 5738 5736 5735 5734 5733 5731 5730 5728 5727 5725 5723